STARLINK-37233, 68562

Orbit data source: Space-Track

STARLINK-37233, 68562 is a payload satellite owned by SpaceX/Seattle (US) in LEO that was launched on Thu, 02 Apr 2026 UTC via an FALCON 9 launch vehicle from the Air Force Eastern Test Range (AFETR). Payload-class satellites include a variety of spacecraft equipped with specific instruments for various scientific and technological missions. These include communications satellites like Starlink; space stations such as the ISS; scientific satellites like the Hubble; Earth observation satellites from companies like Planet Labs, Umbra, and HawkEye 360; GPS; miniature CubeSats for education and research; and military/defense satellites.

Loading next visibility...
Identifier
68562, 2026-070W
Orbit
LEO
Country
Flag of USUS
Related business
Manufacturer
SpaceX/Seattle
Mission
Operational spacecraft
Bus & Motor
STARLINK V2MO, Unknown motor
Mass
575 kg wet, ~530 kg dry
Launch date (UTC)
2026-04-02 (2 months ago)
Launch vehicle
FALCON 9
Launch site
Air Force Eastern Test Range (AFETR)
Object type
Payload
Rocket body
Debris
Shape & HBR
Unknown shape, 14.5 m
Radar Cross Section
RCS unknown

Expand to show TLE details & history
Last TLE update: 1 day ago

TLE from 1 day ago
0 STARLINK-37233
1 68562U 26070W   26145.03599640  .00010921  00000-0  33394-3 0  9994
2 68562  53.1597   7.2352 0001153  90.9806 269.1329 15.34395624  8259
Epoch: 2026-05-25T00:51Z
TLE epoch observation values (Epoch: 2026-05-25T00:51:50.088Z)
Latitude
-0.00002°
Longitude
111.64693°
Altitude
463.63 km
Speed
7.636 km/s
True Right ascension
00h 28m 56s
True Declination
0° 00' 00"
Sunlit
Object was in daylight at epoch
Visualization orbit readout
Latitude
Unknown
Longitude
Unknown
Altitude
Unknown
Speed
Unknown
Apparent Right ascension
Unknown
Apparent Declination
Unknown
Sunlit
N/A
Visualization observer readout
Local Sidereal Time
10:22:16
Azimuth
Unknown
Elevation
Unknown
Doppler factor
Unknown
Orbital elements
Apogee altitude
463.762 km
Perigee altitude
462.184 km
Semi-major axis
6,841.11 km
Eccentricity
0.00012
Inclination
53.1597°
RAAN
7.2352°
Arg. of periapsis
90.9806°
True anomaly
269.11969°
Mean anomaly
269.1329°
Eccentric anomaly
269.12629°
Mean motion
3.83578 °/min
Orbital period
93.85 mins
BSTAR
0.00033394
Loading maneuver chart data...
Computing Atmospheric mass density...
Loading historical data...
Loading historical data...
Loading historical data...
Loading historical data...
Loading historical data...
Loading historical data...
Loading historical data...

Documentation

Showing up to 5 results
|